Wind_Speed
21 19 17 15 13 10 9 7 5 3 3 3 4 3 3 3 4 6 6 4 12 15 15 13 10 4 6 4 14 17 25 20 20 19 21 20 20 19 17 15 10 6 6 10 9
24 24 22 20 18 16 14 12 10 7 5 3 2 1 1 1 3 5 4 6 7 10 12 9 4 8 10 11 9 17 14 22 20 18 20 21 18 20 22 19 12 11 6 6 8
23 24 24 23 23 21 18 16 14 13 10 7 4 3 2 2 2 1 3 6 5 5 11 13 3 8 6 9 18 16 13 17 14 10 15 19 20 20 20 23 17 15 9 7 4
24 24 24 24 23 22 21 19 17 16 15 13 9 7 6 6 6 4 5 7 7 7 10 11 4 5 5 6 10 11 15 22 19 9 12 15 20 21 19 20 22 19 12 7 4
25 26 26 26 25 24 24 23 21 20 18 17 15 11 10 10 7 6 6 7 9 11 12 14 7 4 3 4 11 15 20 22 15 13 11 13 16 23 25 21 22 21 17 10 6
24 25 26 27 27 27 26 25 23 23 21 19 18 16 13 13 11 10 9 9 10 13 15 17 12 7 5 9 11 14 18 22 17 13 13 14 15 18 24 20 19 19 18 17 10
22 24 25 25 26 27 28 27 26 25 23 23 21 19 17 15 13 12 12 11 12 15 14 16 12 10 7 10 10 9 13 12 10 11 12 11 11 14 16 16 14 17 17 16 14
21 22 23 25 26 26 27 29 29 27 26 24 25 24 24 16 18 18 14 15 15 17 19 17 15 13 7 5 7 2 7 8 6 9 8 10 9 10 11 12 13 13 15 15 14
19 21 22 23 25 27 28 28 30 31 30 28 26 24 27 23 26 25 20 18 18 19 21 20 18 14 8 5 4 2 12 10 6 9 4 9 9 9 10 11 9 10 10 14 14
20 19 20 21 25 26 27 29 29 31 32 32 31 28 29 26 28 26 24 22 21 22 22 21 17 15 10 7 4 5 10 12 7 3 6 19 16 14 9 6 6 9 7 9 13
20 21 20 19 22 24 25 26 26 28 29 32 31 33 31 26 26 29 26 24 23 23 22 22 14 12 12 13 6 8 5 10 10 6 5 4 8 7 9 8 7 12 7 7 8
21 20 20 20 21 22 22 23 24 24 27 30 32 31 32 29 25 27 27 26 25 23 23 21 12 11 19 18 13 13 11 6 11 9 6 6 5 9 10 8 2 10 6 6 7
21 21 20 19 19 20 20 20 20 20 21 28 29 32 30 29 29 27 27 28 27 26 24 21 16 18 18 19 15 15 14 11 7 11 10 5 5 2 8 6 8 5 7 2 5
20 21 20 18 18 17 18 18 16 17 17 22 26 31 29 27 28 30 29 29 28 25 26 23 24 22 18 19 17 13 14 12 4 8 3 2 6 6 6 14 2 4 10 6 3
21 20 20 19 17 16 15 15 14 14 14 16 18 24 27 29 30 30 30 30 27 28 27 24 24 23 21 16 21 17 20 17 13 12 7 6 5 4 5 11 7 9 3 8 6
22 20 20 21 17 16 13 13 13 12 11 13 13 19 23 28 29 30 31 31 32 32 28 28 27 27 21 21 19 25 24 20 19 16 11 1 4 3 5 10 3 7 1 12 9
22 20 22 23 17 15 12 13 13 10 16 16 14 17 19 24 27 27 28 29 32 32 28 27 25 22 23 23 24 30 25 18 19 16 10 4 6 5 4 10 1 7 9 11 2
22 20 24 23 19 17 13 15 12 15 20 18 17 19 16 17 19 23 24 27 28 29 27 25 25 20 13 11 10 30 26 22 21 13 9 10 12 3 3 8 6 9 8 9 11
22 21 23 21 23 19 16 15 18 19 18 18 18 21 13 14 15 15 19 24 26 26 24 24 21 22 21 18 12 15 26 26 30 23 23 24 14 3 1 6 5 9 11 8 11
23 24 21 23 25 21 18 18 22 21 17 17 16 17 13 10 6 12 20 21 23 23 25 19 22 24 23 23 13 9 16 26 25 27 23 19 9 5 3 3 2 2 4 5 6
27 25 25 21 26 24 19 23 29 26 20 19 15 14 16 14 10 9 14 18 22 22 22 24 23 21 21 13 6 4 12 19 21 26 20 17 9 9 10 7 9 5 6 12 14
32 30 26 25 26 26 24 32 36 30 26 22 17 15 17 17 15 13 14 15 17 18 17 23 25 22 17 19 10 6 2 17 22 21 17 16 13 13 14 14 11 1 11 18 17
35 35 31 25 24 30 31 35 39 35 31 26 19 17 15 14 17 15 21 20 16 13 16 22 25 21 22 19 16 12 4 16 23 20 19 15 15 10 12 10 6 7 12 19 16
35 39 37 32 28 35 36 37 40 41 36 29 24 19 17 17 16 19 19 19 16 16 13 22 21 22 17 9 10 11 9 12 23 21 14 15 11 12 9 10 9 10 13 21 14
34 40 40 36 32 32 37 35 38 43 39 34 27 21 24 22 18 17 17 16 12 9 9 10 10 19 17 18 16 12 13 18 27 22 13 7 9 13 6 6 7 3 12 14 7
32 37 42 38 37 34 37 39 40 41 41 36 30 27 30 26 22 17 12 12 12 13 11 11 13 13 25 22 20 15 12 17 24 20 12 10 13 5 5 3 5 2 9 17 20
33 34 40 40 41 39 39 42 42 40 38 40 37 33 35 26 23 21 19 17 14 11 14 15 14 12 18 21 17 14 13 15 22 14 12 10 6 7 10 13 14 12 20 23 27
Wind_Direction
236 238 240 245 249 255 268 278 296 323 340 359 49 77 105 120 150 157 168 169 130 129 138 108 101 131 80 110 64 51 45 43 49 43 53 76 77 70 70 74 78 92 96 116 124
237 239 242 242 244 249 254 259 267 269 272 288 289 69 73 127 219 180 185 201 155 141 135 169 193 44 51 71 71 33 23 55 41 53 55 64 76 82 80 82 83 85 92 93 112
241 241 242 244 246 248 248 247 250 253 253 250 246 235 185 209 183 214 206 206 195 166 150 131 101 32 70 50 58 66 54 58 37 67 46 61 65 72 82 85 79 92 81 50 75
248 248 247 246 244 245 245 245 246 245 248 242 236 232 226 218 200 207 202 224 226 196 151 149 187 346 47 26 56 40 46 44 40 66 78 65 57 49 60 81 78 80 101 107 76
252 251 250 249 248 246 245 243 242 243 245 239 235 227 226 228 225 212 229 222 233 213 177 181 219 235 355 44 10 56 47 37 44 17 103 74 69 59 51 67 73 71 75 94 119
253 253 253 252 250 249 247 244 243 241 240 237 230 230 226 234 217 212 207 228 240 228 193 191 210 252 298 311 6 43 53 34 41 69 95 75 65 57 53 52 74 73 71 72 93
255 254 254 254 251 249 249 246 243 241 238 233 227 229 231 230 230 228 211 215 228 245 232 223 227 251 324 309 9 46 52 54 49 65 80 105 96 73 61 52 44 73 80 76 78
260 259 257 256 255 253 250 247 246 242 239 235 232 231 234 224 225 226 217 215 221 226 238 245 249 263 275 276 348 54 63 64 46 101 63 54 75 82 69 62 50 47 49 74 78
262 261 261 259 257 255 253 250 246 243 239 235 234 232 234 221 229 227 223 218 217 225 232 239 249 264 272 246 294 167 98 116 100 143 86 60 48 70 60 32 64 58 48 53 66
261 264 265 264 260 258 255 252 250 245 240 235 232 229 231 231 227 236 229 223 221 222 233 239 239 258 268 263 214 211 114 95 147 180 68 88 78 51 41 44 61 84 74 63 58
263 263 267 271 268 259 257 254 252 247 243 237 235 231 227 230 226 231 227 228 224 225 226 240 234 260 265 263 198 223 218 107 112 182 114 105 72 55 39 61 56 37 101 108 90
260 264 265 268 276 262 259 253 251 247 243 234 230 233 230 228 224 228 230 235 227 224 229 232 224 214 227 241 240 218 230 185 126 102 143 138 46 19 42 69 23 350 43 124 106
258 259 263 265 274 266 262 255 249 247 241 242 229 230 230 226 226 223 221 227 232 225 224 227 214 213 223 232 231 232 236 204 151 151 145 182 165 58 55 41 66 18 52 124 100
261 256 260 262 270 267 260 256 252 249 238 238 227 228 227 224 224 225 223 222 224 226 226 224 222 228 232 233 232 228 223 229 195 186 248 172 161 238 57 9 317 96 60 51 57
256 257 253 256 260 263 261 253 248 247 244 236 230 224 223 221 219 222 224 226 224 225 229 226 229 234 238 234 220 193 216 214 177 193 213 230 298 16 352 348 312 168 8 12 76
252 251 250 251 248 254 259 241 237 239 226 228 227 222 220 220 221 223 222 223 222 225 222 225 230 237 233 219 228 199 201 207 195 207 218 246 301 45 319 328 197 190 323 25 29
255 247 249 244 242 243 248 230 231 222 208 214 209 221 219 219 219 221 223 225 227 231 227 225 231 236 242 238 231 222 214 212 224 220 173 203 285 316 310 332 261 38 40 20 315
254 249 242 237 236 234 234 221 227 216 214 213 220 218 224 225 219 215 216 221 225 225 224 221 224 227 223 196 213 216 224 229 237 244 208 239 255 261 332 357 67 60 43 19 14
251 247 243 235 230 226 224 213 214 224 222 212 204 218 208 208 212 208 214 221 221 222 218 215 210 207 182 170 182 226 227 230 234 252 251 247 231 228 5 334 68 59 34 1 7
251 242 246 229 226 222 215 206 206 222 220 206 198 213 176 169 181 208 212 217 220 214 208 197 203 206 194 195 174 227 225 228 225 230 219 214 218 257 251 58 322 322 38 332 333
250 245 239 236 226 217 207 202 199 214 220 198 176 151 135 108 125 176 210 211 205 197 199 187 201 197 209 201 178 224 233 214 206 199 211 209 217 255 252 236 236 254 347 336 321
246 244 239 232 227 212 203 200 206 210 217 206 184 174 167 162 158 150 169 167 190 184 191 194 203 203 177 173 186 201 313 215 212 205 203 224 242 257 245 288 238 286 341 334 316
241 240 238 230 223 210 204 204 205 209 213 212 198 181 187 177 155 153 164 153 152 150 183 204 200 196 198 194 199 225 242 210 207 201 203 222 246 258 287 299 328 312 316 322 311
240 239 235 231 222 215 208 203 207 213 216 215 204 190 202 188 188 165 166 169 157 137 168 209 214 211 207 208 228 226 229 237 213 208 216 249 240 230 279 342 17 319 313 323 279
244 240 235 230 227 221 213 208 208 214 217 213 203 207 200 203 201 183 181 167 179 171 189 203 228 237 218 226 238 229 245 250 218 212 234 223 265 258 315 10 357 26 359 359 297
249 241 238 224 222 222 213 210 211 217 215 211 204 212 203 207 197 184 195 191 177 199 232 261 264 235 220 230 238 240 255 229 212 217 210 242 249 271 275 304 321 272 328 341 331
248 242 238 226 218 218 215 210 212 217 214 214 204 216 207 213 202 193 197 199 200 243 245 241 208 228 230 214 227 239 221 202 206 225 224 249 268 261 286 295 305 300 323 329 328
Height
5924 5926 5927 5928 5929 5930 5930 5930 5930 5930 5929 5929 5928 5927 5927 5927 5927 5926 5927 5928 5930 5929 5929 5927 5923 5923 5924 5924 5926 5930 5927 5924 5922 5920 5920 5915 5912 5911 5911 5911 5911 5911 5911 5912 5912
5921 5922 5924 5925 5926 5927 5928 5929 5929 5930 5930 5929 5929 5928 5927 5927 5927 5927 5927 5927 5929 5929 5928 5926 5924 5925 5927 5928 5928 5931 5930 5926 5926 5923 5921 5919 5918 5915 5914 5913 5913 5911 5910 5912 5914
5916 5918 5920 5921 5923 5924 5926 5927 5928 5928 5929 5929 5929 5929 5928 5928 5928 5928 5927 5927 5928 5928 5928 5926 5924 5926 5926 5926 5927 5928 5932 5927 5926 5924 5926 5923 5922 5918 5916 5916 5916 5913 5910 5910 5914
5911 5913 5915 5916 5918 5920 5922 5924 5925 5926 5926 5927 5928 5928 5928 5928 5929 5927 5927 5927 5928 5927 5927 5927 5924 5925 5928 5927 5926 5928 5927 5926 5923 5926 5926 5926 5926 5922 5920 5920 5920 5918 5915 5913 5913
5906 5908 5909 5911 5913 5915 5917 5919 5921 5923 5924 5925 5926 5927 5927 5927 5928 5927 5926 5927 5927 5927 5927 5927 5925 5927 5928 5929 5926 5927 5925 5925 5927 5928 5929 5929 5929 5926 5924 5921 5921 5921 5920 5918 5917
5901 5902 5904 5905 5907 5909 5912 5914 5916 5918 5921 5922 5923 5925 5926 5926 5927 5927 5927 5926 5927 5926 5926 5926 5926 5927 5928 5929 5924 5926 5928 5926 5927 5930 5930 5931 5932 5928 5924 5922 5923 5922 5923 5921 5920
5896 5897 5899 5900 5902 5903 5906 5908 5911 5913 5916 5918 5920 5922 5923 5924 5925 5926 5927 5926 5926 5926 5926 5926 5927 5928 5930 5930 5927 5927 5928 5928 5932 5932 5933 5933 5931 5929 5928 5925 5924 5924 5925 5923 5923
5891 5892 5893 5894 5896 5897 5899 5902 5904 5907 5910 5913 5915 5918 5919 5922 5922 5923 5925 5926 5925 5925 5926 5926 5928 5929 5931 5931 5932 5933 5932 5931 5933 5934 5935 5935 5933 5931 5930 5928 5926 5923 5921 5922 5923
5887 5887 5888 5889 5890 5891 5893 5895 5898 5901 5904 5907 5911 5913 5914 5918 5917 5918 5921 5924 5925 5924 5924 5925 5927 5929 5932 5934 5936 5935 5935 5934 5934 5937 5937 5936 5935 5934 5932 5930 5927 5926 5925 5924 5924
5882 5883 5883 5884 5883 5885 5886 5889 5891 5895 5897 5901 5904 5908 5909 5912 5914 5916 5918 5920 5923 5923 5922 5924 5927 5928 5930 5933 5936 5935 5937 5935 5934 5937 5937 5936 5936 5936 5933 5930 5928 5926 5929 5927 5926
5878 5878 5878 5879 5878 5879 5881 5884 5887 5889 5890 5894 5899 5900 5902 5907 5911 5911 5914 5917 5919 5921 5922 5922 5927 5927 5929 5929 5933 5934 5937 5935 5934 5935 5937 5937 5936 5934 5934 5931 5930 5929 5928 5929 5928
5873 5873 5873 5874 5874 5874 5875 5877 5879 5882 5883 5885 5890 5894 5898 5901 5905 5907 5910 5913 5916 5919 5919 5922 5926 5928 5926 5926 5929 5933 5935 5936 5934 5936 5937 5937 5936 5934 5933 5933 5931 5930 5929 5930 5930
5868 5869 5869 5870 5870 5870 5870 5872 5874 5875 5877 5878 5883 5886 5892 5897 5898 5902 5905 5907 5911 5914 5917 5919 5923 5922 5924 5925 5928 5930 5932 5934 5933 5935 5936 5936 5936 5934 5934 5933 5932 5931 5929 5930 5929
5863 5864 5864 5866 5867 5866 5867 5868 5869 5870 5872 5874 5876 5879 5887 5890 5894 5895 5899 5902 5906 5910 5912 5916 5917 5919 5921 5923 5925 5927 5929 5930 5930 5931 5933 5934 5934 5933 5934 5935 5934 5933 5932 5930 5928
5858 5859 5860 5861 5862 5863 5864 5864 5866 5867 5869 5870 5872 5874 5879 5884 5886 5890 5893 5897 5902 5905 5909 5913 5913 5916 5918 5922 5922 5928 5926 5927 5930 5928 5932 5932 5933 5933 5934 5934 5933 5932 5932 5931 5928
5852 5854 5855 5856 5858 5859 5860 5861 5863 5866 5865 5866 5867 5868 5872 5876 5881 5884 5888 5892 5894 5897 5903 5906 5909 5910 5914 5917 5919 5922 5922 5924 5927 5926 5927 5929 5931 5931 5933 5933 5931 5931 5932 5930 5929
5847 5849 5850 5851 5855 5856 5857 5859 5861 5861 5862 5862 5863 5865 5867 5871 5875 5879 5883 5887 5890 5894 5899 5902 5905 5909 5911 5914 5917 5917 5918 5920 5922 5922 5926 5926 5928 5930 5930 5931 5932 5931 5931 5930 5929
5842 5843 5843 5846 5850 5852 5854 5856 5857 5858 5857 5860 5862 5861 5864 5867 5871 5874 5878 5881 5885 5890 5894 5898 5901 5904 5909 5911 5913 5915 5915 5916 5918 5920 5923 5923 5925 5928 5929 5929 5930 5929 5929 5928 5928
5836 5838 5838 5843 5845 5848 5851 5853 5853 5853 5857 5859 5860 5860 5861 5864 5868 5872 5875 5877 5881 5886 5891 5894 5897 5899 5903 5905 5908 5910 5911 5915 5915 5917 5919 5921 5924 5925 5926 5926 5927 5927 5927 5927 5926
5830 5831 5834 5837 5839 5844 5847 5849 5850 5850 5854 5857 5858 5859 5859 5863 5867 5869 5870 5874 5877 5882 5886 5890 5893 5897 5899 5901 5904 5905 5907 5908 5910 5912 5915 5919 5921 5921 5924 5923 5925 5924 5923 5923 5922
5824 5825 5828 5832 5834 5839 5844 5846 5846 5846 5850 5854 5857 5857 5857 5860 5864 5867 5870 5872 5874 5876 5881 5886 5891 5895 5896 5901 5903 5904 5902 5903 5906 5910 5913 5917 5918 5918 5920 5921 5920 5923 5923 5922 5920
5816 5819 5822 5825 5830 5835 5839 5840 5840 5843 5847 5851 5855 5856 5856 5856 5859 5864 5868 5870 5871 5874 5879 5883 5888 5889 5895 5896 5899 5899 5900 5902 5904 5909 5912 5913 5915 5915 5917 5918 5920 5919 5920 5922 5921
5807 5810 5814 5818 5823 5828 5829 5834 5837 5839 5843 5848 5853 5855 5857 5859 5860 5862 5865 5868 5870 5872 5876 5881 5886 5888 5891 5894 5895 5896 5897 5898 5902 5905 5908 5910 5912 5911 5914 5916 5914 5910 5919 5918 5917
5798 5800 5805 5811 5815 5819 5824 5828 5834 5836 5841 5846 5851 5854 5855 5857 5858 5861 5865 5866 5869 5872 5875 5880 5883 5886 5888 5891 5892 5893 5894 5896 5898 5902 5905 5907 5909 5909 5911 5912 5912 5915 5916 5915 5915
5788 5790 5797 5803 5809 5813 5820 5826 5829 5831 5836 5842 5848 5851 5853 5856 5856 5861 5862 5864 5868 5871 5874 5879 5881 5883 5887 5887 5888 5889 5891 5891 5895 5900 5903 5905 5907 5909 5911 5912 5914 5916 5916 5912 5911
5779 5781 5786 5796 5800 5806 5812 5818 5822 5825 5832 5839 5846 5847 5851 5854 5856 5859 5861 5864 5867 5870 5873 5875 5878 5880 5882 5884 5886 5887 5888 5889 5893 5898 5900 5903 5905 5906 5909 5911 5913 5913 5913 5911 5910
5769 5772 5775 5784 5790 5797 5802 5809 5814 5821 5829 5835 5841 5843 5848 5854 5854 5858 5860 5863 5866 5868 5870 5873 5875 5877 5879 5882 5885 5887 5888 5889 5891 5895 5898 5899 5903 5903 5905 5907 5909 5909 5909 5907 5907